Retour au catalogue

ARIANE 1 DEB

LostHEO
NORAD 26532·DEBRIS·🇫🇷 France

Lancé Dec 24, 1979 depuis Guiana Space Centre

Loading…

Prochains Passages (prochaines 24 heures)

TLE

PériméSource: Space-Track

Époque: Jan 21, 2025, 06:36 UTC

1 26532U 79104N   25021.27536750 -.00001198  00000-0 -33428-1 0  9996
2 26532  15.8870 319.8976 5829719 241.8214 289.5286  3.77551389351305

Suivez ARIANE 1 DEB en temps réel avec AllMySat

Download on the App Store